Home > Weather > Rajshahi > Past weeks

Flag for Bangladesh Weather for the Past 2 Weeks in Rajshahi, Bangladesh

Now
84 °F

Passing clouds.


Feels Like: 98 °F
Forecast: 84 / 106 °F
Wind: 5 mph from Southeast

Location: Calcutta / Dum Dum

Current Time: Apr 29, 2016 at 6:53:19 AM

Latest Report: Apr 29, 2016 at 6:00 AM


Visibility: 2 mi

Pressure: 29.65 "Hg

Humidity: 89%

Dew Point: 81 °F

Location of RajshahiLocation

Historic Weather in Rajshahi — Graph

°F

Rajshahi Temperature Yesterday

Maximum temperature yesterday: 100 °F (at 3:30 PM)
Minimum temperature yesterday: 84 °F (at 2:00 AM)
Average temperature yesterday: 90 °F

High & Low Weather Summary for the Past Weeks

 TemperatureHumidityPressure
High108 °F (Apr 15, 2:30 PM)89% (Apr 16, 5:00 AM)29.80 "Hg (Apr 16, 5:00 AM)
Low82 °F (Apr 14, 5:00 AM)18% (Apr 24, 3:30 PM)29.42 "Hg (Apr 23, 5:00 PM)
Average90 °F68%29.63 "Hg
* Reported Apr 14 5:00 AM — Apr 29 5:00 AM, Rajshahi, Weather by CustomWeather, © 2016

Note: Actual official high and low records may vary slightly from our data, if they occured in-between our weather recording intervals... More about our weather records

Advertising

Rajshahi Weather History for the Previous 24 Hours

Scroll right to see more
 ConditionsComfort  
Time TempWeatherWind HumidityBarometerVisibility
5:00 AM
Fri, Apr 29
84 °FHaze.3 mph89%29.62 "Hg2 mi
4:30 AM84 °FHaze.5 mph89%29.62 "Hg2 mi
4:00 AM84 °FHaze.3 mph89%29.62 "Hg2 mi
3:30 AM84 °FHaze.6 mph89%29.62 "Hg2 mi
3:00 AM84 °FHaze.8 mph89%29.62 "Hg2 mi
2:00 AM86 °FPassing clouds.12 mph89%29.62 "Hg2 mi
1:30 AM86 °FPassing clouds.15 mph89%29.62 "Hg2 mi
1:00 AM86 °FPassing clouds.15 mph84%29.65 "Hg2 mi
12:30 AM86 °FPassing clouds.17 mph84%29.65 "Hg2 mi
12:00 AM86 °FPassing clouds.16 mph84%29.65 "Hg2 mi
11:30 PM
Thu, Apr 28
86 °FPassing clouds.16 mph89%29.65 "Hg2 mi
11:00 PM86 °FPassing clouds.16 mph89%29.65 "Hg2 mi
10:30 PM86 °FPassing clouds.15 mph89%29.65 "Hg2 mi
10:00 PM88 °FPassing clouds.12 mph84%29.65 "Hg2 mi
9:30 PM88 °FPassing clouds.15 mph84%29.65 "Hg2 mi
9:00 PM88 °FPassing clouds.14 mph84%29.65 "Hg2 mi
8:30 PM88 °FPassing clouds.13 mph84%29.65 "Hg2 mi
8:00 PM90 °FPassing clouds.12 mph79%29.62 "Hg2 mi
7:00 PM91 °FScattered clouds.10 mph71%29.62 "Hg2 mi
6:30 PM93 °FScattered clouds.9 mph63%29.59 "Hg2 mi
6:00 PM95 °FScattered clouds.9 mph60%29.59 "Hg2 mi
5:30 PM97 °FBroken clouds.9 mph56%29.59 "Hg2 mi
5:00 PM97 °FBroken clouds.7 mph56%29.59 "Hg2 mi
4:30 PM99 °FBroken clouds.9 mph53%29.62 "Hg2 mi
4:00 PM100 °FScattered clouds.7 mph50%29.62 "Hg2 mi
3:30 PM100 °FScattered clouds.6 mph50%29.62 "Hg2 mi
3:00 PM99 °FScattered clouds.5 mph53%29.65 "Hg2 mi
2:00 PM97 °FScattered clouds.9 mph56%29.65 "Hg2 mi
1:30 PM95 °FScattered clouds.9 mph63%29.65 "Hg2 mi
12:00 PM95 °FScattered clouds.12 mph63%29.71 "Hg2 mi
11:00 AM95 °FScattered clouds.8 mph63%29.71 "Hg2 mi
10:00 AM93 °FScattered clouds.5 mph71%29.74 "Hg2 mi
9:30 AM90 °FHaze.10 mph79%29.71 "Hg2 mi
9:00 AM90 °FHaze.10 mph79%29.71 "Hg2 mi
8:30 AM90 °FHaze.12 mph75%29.68 "Hg2 mi
8:00 AM88 °FHaze.10 mph79%29.68 "Hg2 mi
7:00 AM84 °FScattered clouds.9 mph84%29.65 "Hg2 mi
6:00 AM84 °FPassing clouds.14 mph84%29.62 "Hg2 mi
Weather by CustomWeather, © 2016

See weather overviewHow to use our weather pages